Flag for Colombia Weather past 2 weeks in Buenaventura, Colombia

Now
68 °F

Passing clouds.


Feels Like: 68 °F
Forecast: 78 / 89 °F
Wind: 3 mph from Southeast

Location: Cali / Alfonso Bonillaaragon

Current Time: Aug 31, 2015 at 6:02:14 AM

Latest Report: Aug 31, 2015 at 5:00 AM


Visibility: N/A

Pressure: 29.97 "Hg

Humidity: 94%

Dew point: 66 °F

Location of BuenaventuraLocation

Historic Weather in Buenaventura — Graph

°F

Buenaventura temperature yesterday

Maximum temperature yesterday: 86 °F (at 1:00 PM)
Minimum temperature yesterday: 61 °F (at 6:00 AM)
Average temperature yesterday: 75 °F

Past Weeks' High & Low Weather Summary

 TemperatureHumidityPressure
High95 °F (Aug 20, 2:00 PM)100% (Aug 30, 6:00 AM)30.07 "Hg (Aug 30, 6:00 AM)
Low61 °F (Aug 30, 6:00 AM)25% (Aug 29, 2:00 PM)29.78 "Hg (Aug 28, 4:00 PM)
Average77 °F67%29.94 "Hg
* Reported Aug 16 5:00 AM — Aug 31 5:00 AM, Buenaventura, Weather by CustomWeather, © 2015

Note: Actual official high and low records may vary slightly from our data, if they occured in-between our weather recording intervals... More about our weather records

Advertising

Buenaventura weather history for previous 24 hours

 ConditionsComfort  
Time TempWeatherWind HumidityBarometerVisibility
5:00 AM
Mon, Aug 31
68 °FPassing clouds.3 mph94%29.97 "HgN/A
4:00 AM70 °FPassing clouds.5 mph88%29.96 "HgN/A
3:00 AM72 °FPassing clouds.5 mph83%29.98 "HgN/A
2:00 AM72 °FPassing clouds.5 mph83%29.99 "HgN/A
1:00 AM72 °FPassing clouds.5 mph83%30.00 "HgN/A
12:00 AM72 °FPassing clouds.7 mph83%29.99 "HgN/A
11:00 PM
Sun, Aug 30
73 °FPassing clouds.7 mph74%30.00 "HgN/A
10:00 PM73 °FPassing clouds.5 mph74%29.99 "HgN/A
9:00 PM75 °FPassing clouds.9 mph69%29.97 "HgN/A
8:00 PM77 °FPassing clouds.9 mph65%29.94 "HgN/A
7:00 PM79 °FPartly cloudy.9 mph61%29.92 "HgN/A
6:00 PM81 °FBroken clouds.7 mph58%29.89 "HgN/A
4:00 PM84 °FPartly sunny.14 mph51%29.89 "HgN/A
3:00 PM86 °FPartly sunny.2 mph43%29.90 "HgN/A
2:00 PM86 °FPartly sunny.3 mph43%29.96 "Hg6 mi
1:00 PM86 °FPartly sunny.5 mph43%29.96 "Hg6 mi
12:00 PM84 °FPartly sunny.5 mph45%29.99 "Hg6 mi
11:00 AM82 °FPartly sunny.7 mph58%30.01 "Hg5 mi
10:00 AM79 °FPartly sunny.5 mph61%30.01 "Hg5 mi
9:00 AM77 °FScattered clouds.3 mph65%30.02 "Hg4 mi
8:00 AM72 °FPartly sunny.3 mph78%30.02 "Hg4 mi
7:00 AM66 °FFog.2 mph94%30.00 "Hg3 mi
6:00 AM61 °FFog.No wind100%29.97 "Hg3 mi
Weather by CustomWeather, © 2015

See weather overviewHow to use our weather pages